Oakland, MD

5:17 PM EDT on October 17, 2019 (GMT -0400)
Oakland

Weather History for K2G4 - September, 2019

Change the Weather History Date:

Monday, September 23, 2019

  Actual Average (WUND) Record (WUND)
Temperature  
Mean Temperature 63 °F -  
Max Temperature 69 °F - - (-1)
Min Temperature 57 °F - - (-1)
Degree Days  
Heating Degree Days 2    
Growing Degree Days 13 (Base 50)    
Moisture  
Dew Point 57 °F    
Average Humidity 82    
Maximum Humidity 100    
Minimum Humidity 56    
Precipitation  
Precipitation 0.00 in - - ()
Sea Level Pressure  
Sea Level Pressure 30.04 in    
Wind  
Wind Speed 8 mph ()    
Max Wind Speed 14 mph    
Max Gust Speed 25 mph    
Visibility 7.2 miles    
Events      
Averages and records for this station are not official NWS values.
T = Trace of Precipitation, MM = Missing Value Source: Averaged Metar Reports

Daily Weather History Graph

Daily Weather History Graph

Search for Another Location

Airport or City:

Astronomy

Sep. 23, 2019 Rise Set
Actual Time 7:05 AM EDT 7:13 PM EDT
Civil Twilight 6:38 AM EDT 7:39 PM EDT
Nautical Twilight 6:07 AM EDT 8:11 PM EDT
Astronomical Twilight 5:35 AM EDT 8:43 PM EDT
Moon 12:48 AM EDT (9/23) 4:03 PM EDT (9/23)
Length of Visible Light 13h 01m
Length of Day
12h 07m
Waning Crescent, 33% of the Moon is Illuminated
Sep 23
Waning Crescent
Sep 28
New
Oct 5
First Quarter
Oct 13
Full
Oct 21
Last Quarter

Hourly Weather History & Observations

Time (EDT) Temp. Dew Point Humidity Pressure Visibility Wind Dir Wind Speed Gust Speed Precip Events Conditions
12:00 AM 64.4 °F 55.4 °F 73% 30.12 in 10.0 mi SSW 4.6 mph - N/A   Clear
12:20 AM 64.4 °F 55.4 °F 73% 30.12 in 10.0 mi SSW 5.8 mph - N/A   Clear
12:40 AM 66.2 °F 55.4 °F 68% 30.11 in 10.0 mi SSW 5.8 mph - N/A   Clear
1:00 AM 66.2 °F 55.4 °F 68% 30.11 in 10.0 mi SSW 5.8 mph - N/A   Clear
1:20 AM 68.0 °F 55.4 °F 64% 30.11 in 10.0 mi SSW 5.8 mph - N/A   Clear
1:40 AM 66.2 °F 55.4 °F 68% 30.10 in 10.0 mi SSW 6.9 mph - N/A   Clear
2:20 AM 64.4 °F 55.4 °F 73% 30.10 in 10.0 mi SSW 6.9 mph - N/A   Clear
2:40 AM 62.6 °F 55.4 °F 77% 30.10 in 10.0 mi SSW 6.9 mph - N/A   Clear
3:00 AM 62.6 °F 55.4 °F 77% 30.10 in 10.0 mi SW 6.9 mph - N/A   Clear
3:20 AM 64.4 °F 55.4 °F 73% 30.09 in 10.0 mi SW 8.1 mph - N/A   Clear
3:40 AM 64.4 °F 55.4 °F 73% 30.09 in 10.0 mi SW 9.2 mph - N/A   Clear
4:00 AM 64.4 °F 55.4 °F 73% 30.09 in 10.0 mi WSW 8.1 mph - N/A   Clear
4:20 AM 62.6 °F 55.4 °F 77% 30.09 in 10.0 mi WSW 9.2 mph - N/A   Clear
4:40 AM 64.4 °F 53.6 °F 68% 30.08 in 10.0 mi WSW 9.2 mph - N/A   Clear
5:00 AM 64.4 °F 53.6 °F 68% 30.08 in 10.0 mi WSW 10.4 mph - N/A   Clear
5:20 AM 64.4 °F 53.6 °F 68% 30.08 in 10.0 mi WSW 10.4 mph 19.6 mph N/A   Clear
5:40 AM 62.6 °F 53.6 °F 72% 30.08 in 10.0 mi WSW 9.2 mph 18.4 mph N/A   Clear
6:00 AM 62.6 °F 53.6 °F 72% 30.07 in 10.0 mi SW 9.2 mph 16.1 mph N/A   Clear
6:20 AM 62.6 °F 51.8 °F 68% 30.07 in 10.0 mi WSW 9.2 mph 19.6 mph N/A   Clear
6:40 AM 62.6 °F 51.8 °F 68% 30.07 in 10.0 mi WSW 9.2 mph 19.6 mph N/A   Clear
7:00 AM 62.6 °F 51.8 °F 68% 30.07 in 10.0 mi WSW 11.5 mph 17.3 mph N/A   Clear
7:20 AM 62.6 °F 51.8 °F 68% 30.07 in 10.0 mi WSW 10.4 mph 17.3 mph N/A   Clear
7:40 AM 62.6 °F 51.8 °F 68% 30.07 in 10.0 mi WSW 8.1 mph 17.3 mph N/A   Clear
8:00 AM 64.4 °F 51.8 °F 64% 30.07 in 10.0 mi WSW 10.4 mph 17.3 mph N/A   Clear
8:20 AM 64.4 °F 51.8 °F 64% 30.07 in 10.0 mi WSW 12.7 mph 17.3 mph N/A   Scattered Clouds
8:40 AM 66.2 °F 51.8 °F 60% 30.07 in 10.0 mi WSW 11.5 mph 19.6 mph N/A   Scattered Clouds
9:00 AM 68.0 °F 51.8 °F 56% 30.07 in 10.0 mi WSW 12.7 mph 20.7 mph N/A   Clear
9:20 AM 68.0 °F 53.6 °F 60% 30.07 in 10.0 mi WSW 10.4 mph 18.4 mph N/A   Clear
9:40 AM 68.0 °F 53.6 °F 60% 30.07 in 10.0 mi WSW 12.7 mph 21.9 mph N/A   Clear
10:00 AM 69.8 °F 55.4 °F 60% 30.07 in 10.0 mi WSW 13.8 mph 20.7 mph N/A   Clear
10:20 AM 69.8 °F 55.4 °F 60% 30.06 in 10.0 mi West 11.5 mph 25.3 mph N/A   Clear
10:40 AM 68.0 °F 55.4 °F 64% 30.06 in 10.0 mi West 9.2 mph 17.3 mph N/A   Scattered Clouds
11:00 AM 68.0 °F 57.2 °F 68% 30.06 in 10.0 mi WSW 12.7 mph 23.0 mph N/A   Scattered Clouds
11:20 AM 69.8 °F 57.2 °F 64% 30.05 in 10.0 mi WSW 13.8 mph 23.0 mph N/A   Scattered Clouds
11:40 AM 69.8 °F 57.2 °F 64% 30.05 in 10.0 mi WSW 8.1 mph 20.7 mph N/A   Scattered Clouds
12:00 PM 68.0 °F 57.2 °F 68% 30.05 in 10.0 mi West 8.1 mph 19.6 mph N/A   Mostly Cloudy
12:20 PM 66.2 °F 57.2 °F 73% 30.04 in 10.0 mi West 12.7 mph 19.6 mph N/A   Mostly Cloudy
12:40 PM 64.4 °F 59.0 °F 83% 30.04 in 10.0 mi WSW 8.1 mph - N/A   Mostly Cloudy
1:00 PM 62.6 °F 59.0 °F 88% 30.03 in 4.0 mi SW 12.7 mph 18.4 mph N/A   Mostly Cloudy
1:20 PM 62.6 °F 60.8 °F 94% 30.04 in 7.0 mi SW 12.7 mph 17.3 mph N/A   Mostly Cloudy
1:40 PM 62.6 °F 62.6 °F 100% 30.03 in 2.5 mi WSW 11.5 mph 17.3 mph N/A   Overcast
2:00 PM 60.8 °F 60.8 °F 100% 30.02 in 10.0 mi SW 9.2 mph 17.3 mph N/A   Overcast
2:20 PM 60.8 °F 60.8 °F 100% 30.02 in 7.0 mi SW 8.1 mph 18.4 mph N/A   Overcast
2:40 PM 60.8 °F 60.8 °F 100% 30.01 in 2.0 mi SW 11.5 mph 16.1 mph N/A   Overcast
3:00 PM 60.8 °F 60.8 °F 100% 30.00 in 2.5 mi SW 8.1 mph 18.4 mph N/A   Overcast
3:20 PM 60.8 °F 60.8 °F 100% 30.00 in 5.0 mi SW 9.2 mph 18.4 mph N/A   Overcast
3:40 PM 60.8 °F 60.8 °F 100% 30.00 in 2.0 mi SW 11.5 mph 17.3 mph N/A   Overcast
4:00 PM 60.8 °F 60.8 °F 100% 30.00 in 3.0 mi SW 10.4 mph 16.1 mph N/A   Overcast
4:20 PM 60.8 °F 60.8 °F 100% 29.99 in 4.0 mi SW 8.1 mph - N/A   Overcast
4:40 PM 60.8 °F 60.8 °F 100% 29.99 in 2.5 mi WSW 9.2 mph 17.3 mph N/A   Overcast
5:20 PM 60.8 °F 60.8 °F 100% 29.98 in 3.0 mi SW 11.5 mph 17.3 mph N/A   Overcast
5:40 PM 60.8 °F 60.8 °F 100% 29.98 in 0.8 mi SW 9.2 mph 19.6 mph N/A   Overcast
6:00 PM 60.8 °F 60.8 °F 100% 29.98 in 0.2 mi SW 10.4 mph 16.1 mph N/A   Overcast
6:20 PM 60.8 °F 60.8 °F 100% 29.99 in 0.2 mi WSW 8.1 mph 17.3 mph N/A   Overcast
6:40 PM 60.8 °F 60.8 °F 100% 29.99 in 0.2 mi WSW 10.4 mph 19.6 mph N/A   Overcast
7:00 PM 60.8 °F 60.8 °F 100% 29.99 in 0.2 mi WSW 10.4 mph 16.1 mph N/A   Overcast
7:20 PM 60.8 °F 60.8 °F 100% 29.98 in 0.2 mi West 10.4 mph 17.3 mph N/A   Overcast
7:40 PM 60.8 °F 60.8 °F 100% 29.98 in 1.5 mi WSW 8.1 mph - N/A   Overcast
8:00 PM 60.8 °F 60.8 °F 100% 29.98 in 4.0 mi WSW 6.9 mph - N/A   Overcast
8:20 PM 60.8 °F 60.8 °F 100% 29.99 in 3.0 mi West 6.9 mph - N/A   Overcast
8:40 PM 60.8 °F 60.8 °F 100% 30.00 in 4.0 mi West 5.8 mph - N/A   Overcast
9:00 PM 60.8 °F 60.8 °F 100% 29.99 in 10.0 mi West 6.9 mph - N/A   Overcast
9:20 PM 60.8 °F 60.8 °F 100% 30.00 in 7.0 mi West 9.2 mph 17.3 mph N/A   Overcast
9:40 PM 60.8 °F 60.8 °F 100% 30.00 in 5.0 mi West 10.4 mph 16.1 mph N/A   Overcast
10:00 PM 60.8 °F 60.8 °F 100% 30.00 in 7.0 mi West 8.1 mph 18.4 mph N/A   Overcast
10:20 PM 57.2 °F 57.2 °F 100% 30.00 in 5.0 mi WNW 6.9 mph - N/A   Mostly Cloudy
10:40 PM 59.0 °F 59.0 °F 100% 30.00 in 5.0 mi West 10.4 mph - N/A   Mostly Cloudy
11:00 PM 59.0 °F 59.0 °F 100% 29.99 in 7.0 mi West 11.5 mph 18.4 mph N/A   Mostly Cloudy
11:20 PM 59.0 °F 59.0 °F 100% 29.99 in 5.0 mi WNW 12.7 mph 18.4 mph N/A   Mostly Cloudy
11:40 PM 59.0 °F 59.0 °F 100% 29.99 in 4.0 mi West 10.4 mph 17.3 mph N/A   Overcast